This demonstration page uses our WeatherBlox Daily Observations layout. Learn more.

Left ArrowRight Arrow

38.89511, -77.03637

Hourly Observations for May 9, 2017

Temp ( °F °C ) Dew Point ( °F °C ) Humidity (%) Winds ( mph kmh ) Pressure ( in mb ) Visibility ( mi km ) Precip ( " mm )
12:52 am 00:52 Partly Cloudy 51 10.6 40 4.4 66 66 N 3 6 30.00 1016 10 16 0.00 0.00
1:52 am 01:52 Partly Cloudy 51 10.6 38 3.3 61 61 SW 5 7 29.98 1015 10 16 0.00 0.00
2:52 am 02:52 Mostly Clear 48 8.9 39 3.9 71 71 SW 5 7 29.98 1015 10 16 0.00 0.00
3:52 am 03:52 Partly Cloudy 47 8.3 38 3.3 71 71 SW 3 6 29.98 1015 10 16 0.00 0.00
4:52 am 04:52 Mostly Cloudy 47 8.3 38 3.3 71 71 N 5 7 29.99 1016 10 16 0.00 0.00
5:52 am 05:52 Mostly Clear 47 8.3 34 1.1 61 61 N 6 9 30.00 1016 10 16 0.00 0.00
6:52 am 06:52 Mostly Sunny 48 8.9 34 1.1 58 58 NNW 10 17 30.03 1017 10 16 0.00 0.00
7:52 am 07:52 Mostly Sunny 51 10.6 31 -0.6 46 46 NNW 10 17 30.04 1017 10 16 0.00 0.00
8:52 am 08:52 Mostly Sunny 55 12.8 31 -0.6 40 40 N 13 20 30.04 1017 10 16 0.00 0.00
9:52 am 09:52 Mostly Sunny 57 13.9 28 -2.2 33 33 N 9 15 30.04 1017 10 16 0.00 0.00
10:52 am 10:52 Mostly Sunny 60 15.6 28 -2.2 30 30 NW 10 17 30.05 1018 10 16 0.00 0.00
11:52 am 11:52 Mostly Sunny 61 16.1 25 -3.9 25 25 VRB 7 11 30.04 1017 10 16 0.00 0.00
12:52 pm 12:52 Mostly Sunny 63 17.2 25 -3.9 24 24 NNW 12 19 30.03 1017 10 16 0.00 0.00
1:52 pm 13:52 Mostly Sunny 64 17.8 24 -4.4 22 22 NW 13 20 30.01 1016 10 16 0.00 0.00
2:52 pm 14:52 Mostly Sunny 65 18.3 27 -2.8 24 24 VRB 3 6 29.98 1015 10 16 0.00 0.00
3:52 pm 15:52 Partly Cloudy 66 18.9 27 -2.8 23 23 NE 7 11 29.97 1015 10 16 0.00 0.00
4:52 pm 16:52 Partly Cloudy 65 18.3 29 -1.7 26 26 ESE 3 6 29.95 1014 10 16 0.00 0.00
5:52 pm 17:52 Mostly Cloudy 66 18.9 31 -0.6 27 27 S 7 11 29.94 1014 10 16 0.00 0.00
6:52 pm 18:52 Mostly Cloudy 65 18.3 31 -0.6 28 28 S 7 11 29.95 1014 10 16 0.00 0.00
7:52 pm 19:52 Mostly Cloudy 61 16.1 35 1.7 38 38 S 7 11 29.95 1014 10 16 0.00 0.00
8:52 pm 20:52 Mostly Cloudy 60 15.6 39 3.9 46 46 ESE 12 19 29.96 1015 10 16 0.00 0.00
9:52 pm 21:52 Partly Cloudy 56 13.3 36 2.2 47 47 S 6 9 29.97 1015 10 16 0.00 0.00
10:52 pm 22:52 Mostly Clear 56 13.3 37 2.8 49 49 S 7 11 29.96 1015 10 16 0.00 0.00
11:52 pm 23:52 Partly Cloudy 55 12.8 37 2.8 51 51 S 5 7 29.97 1015 10 16 0.00 0.00

Powered by AerisWeather